Chiang Mai, Thailand

5:11 PM +07 on December 16, 2017 (GMT +0700)
Chiang Mai International

Weather History for VTCC - December, 2012

Change the Weather History Date:

Sunday, December 9, 2012

  Actual Average Record
Temperature  
Mean Temperature 73 °F -  
Max Temperature 86 °F 81 °F 89 °F (2006)
Min Temperature 60 °F 59 °F 51 °F (2004)
Cooling Degree Days 8    
Growing Degree Days 23 (Base 50)    
Moisture  
Dew Point 57 °F    
Average Humidity 64    
Maximum Humidity 94    
Minimum Humidity 28    
Precipitation  
Precipitation 0.00 in 0.02 in - ()
Sea Level Pressure  
Sea Level Pressure 29.93 in    
Wind  
Wind Speed 1 mph ()    
Max Wind Speed 7 mph    
Max Gust Speed -    
Visibility 5.9 miles    
Events      
Averages and records for this station are not official NWS values.
T = Trace of Precipitation, MM = Missing Value Source: Averaged Metar Reports

Daily Weather History Graph

Daily Weather History Graph

Search for Another Location

Airport or City:

Trip Planner

Search our weather history database for the weather conditions in past years. The results will help you decide how hot, cold, wet, or windy it might be!

Date:

Astronomy

Dec. 09, 2012 Rise Set
Actual Time 6:45 AM +07 5:47 PM +07
Civil Twilight 6:21 AM +07 6:11 PM +07
Nautical Twilight 5:54 AM +07 6:38 PM +07
Astronomical Twilight 5:27 AM +07 7:05 PM +07
Moon 2:12 AM +07 (12/9) 2:08 PM +07 (12/9)
Length of Visible Light 11h 49m
Length of Day
11h 02m
Waning Crescent, 23% of the Moon is Illuminated
Dec 9
Waning Crescent
Dec 13
New
Dec 20
First Quarter
Dec 28
Full
Jan 5
Last Quarter

Hourly Weather History & Observations

Time (+07) Temp. Heat Index Dew Point Humidity Pressure Visibility Wind Dir Wind Speed Gust Speed Precip Events Conditions
12:00 AM 68.0 °F - 60.8 °F 78% 29.95 in - Calm Calm - N/A   Clear
12:30 AM 66.2 °F - 60.8 °F 83% 29.95 in - Calm Calm - N/A   Clear
1:00 AM 67 °F - 63 °F 82% 29.92 in 6 mi Calm Calm - -  
1:00 AM 66.2 °F - 60.8 °F 83% 29.92 in - Calm Calm - N/A   Clear
1:30 AM 66.2 °F - 60.8 °F 83% 29.92 in - Calm Calm - N/A   Clear
2:00 AM 66.2 °F - 60.8 °F 83% 29.92 in - Calm Calm - N/A   Clear
2:30 AM 66.2 °F - 60.8 °F 83% 29.92 in - Calm Calm - N/A   Clear
3:00 AM 64.4 °F - 60.8 °F 88% 29.92 in - Calm Calm - N/A   Clear
3:30 AM 64.4 °F - 60.8 °F 88% 29.92 in - Calm Calm - N/A   Clear
4:00 AM 64.4 °F - 59.0 °F 83% 29.92 in - Calm Calm - N/A   Clear
4:30 AM 64.4 °F - 59.0 °F 83% 29.92 in - Calm Calm - N/A   Clear
5:00 AM 64.4 °F - 59.0 °F 83% 29.92 in - Calm Calm - N/A   Clear
5:30 AM 64.4 °F - 59.0 °F 83% 29.95 in - Calm Calm - N/A   Clear
6:00 AM 64.4 °F - 59.0 °F 83% 29.95 in - Calm Calm - N/A   Clear
6:30 AM 60.8 °F - 59.0 °F 94% 29.95 in 6.2 mi Calm Calm - N/A   Partly Cloudy
7:00 AM 60.8 °F - 59.0 °F 94% 29.98 in - Calm Calm - N/A   Clear
7:30 AM 62.6 °F - 59.0 °F 88% 29.98 in - Calm Calm - N/A   Clear
8:00 AM 68.0 °F - 59.0 °F 73% 30.01 in 5.0 mi Calm Calm - N/A   Unknown
8:30 AM 66.2 °F - 60.8 °F 83% 30.01 in 5.0 mi SE 3.5 mph - N/A   Unknown
9:00 AM 66.2 °F - 60.8 °F 83% 30.01 in 5.0 mi ESE 3.5 mph - N/A   Partly Cloudy
9:30 AM 69.8 °F - 60.8 °F 73% 30.01 in 5.0 mi East 2.3 mph - N/A   Partly Cloudy
10:00 AM 71.6 °F - 60.8 °F 69% 30.01 in 5.0 mi East 3.5 mph - N/A   Partly Cloudy
10:30 AM 73.4 °F - 59.0 °F 61% 30.01 in 6.2 mi NNE 2.3 mph - N/A   Partly Cloudy
11:00 AM 75.2 °F - 59.0 °F 57% 30.01 in 6.2 mi North 3.5 mph - N/A   Partly Cloudy
11:30 AM 75.2 °F - 57.2 °F 53% 29.98 in 6.2 mi NNW 3.5 mph - N/A   Partly Cloudy
12:00 PM 78.8 °F - 57.2 °F 47% 29.98 in 6.2 mi NNW 2.3 mph - N/A   Partly Cloudy
12:30 PM 78.8 °F - 57.2 °F 47% 29.95 in 6.2 mi South 4.6 mph - N/A   Partly Cloudy
1:00 PM 83 °F - 58 °F 33% 29.86 in 6 mi Calm Calm - -   Clear
1:00 PM 82.4 °F 81.7 °F 55.4 °F 39% 29.92 in 6.2 mi SE 2.3 mph - N/A   Partly Cloudy
1:30 PM 82.4 °F - 51.8 °F 35% 29.89 in 6.2 mi SSE 3.5 mph - N/A   Partly Cloudy
2:00 PM 82.4 °F - 46.4 °F 28% 29.89 in 6.2 mi South 5.8 mph - N/A   Partly Cloudy
2:30 PM 84.2 °F - 50.0 °F 30% 29.86 in 6.2 mi South 4.6 mph - N/A   Partly Cloudy
3:00 PM 84.2 °F - 50.0 °F 30% 29.86 in 6.2 mi South 6.9 mph - N/A   Partly Cloudy
3:30 PM 84.2 °F - 48.2 °F 29% 29.86 in 6.2 mi South 6.9 mph - N/A   Partly Cloudy
4:00 PM 84.2 °F - 48.2 °F 29% 29.86 in 6.2 mi SW 5.8 mph - N/A   Partly Cloudy
4:30 PM 84.2 °F - 50.0 °F 30% 29.86 in 6.2 mi WSW 5.8 mph - N/A   Partly Cloudy
5:00 PM 84.2 °F - 50.0 °F 30% 29.86 in 6.2 mi WSW 4.6 mph - N/A   Partly Cloudy
5:30 PM 82.4 °F - 51.8 °F 35% 29.86 in 6.2 mi West 3.5 mph - N/A   Partly Cloudy
6:00 PM 75.2 °F - 59.0 °F 57% 29.89 in - West 4.6 mph - N/A   Clear
6:30 PM 73.4 °F - 57.2 °F 57% 29.89 in - WNW 4.6 mph - N/A   Clear
7:00 PM 73 °F - 62 °F 59% 29.85 in 6 mi Calm Calm - -  
7:00 PM 71.6 °F - 57.2 °F 60% 29.89 in - WNW 3.5 mph - N/A   Clear
7:30 PM 71.6 °F - 55.4 °F 57% 29.92 in - WNW 2.3 mph - N/A   Clear
8:00 PM 71.6 °F - 53.6 °F 53% 29.92 in - Calm Calm - N/A   Clear
8:30 PM 69.8 °F - 57.2 °F 64% 29.92 in - Calm Calm - N/A   Clear
9:00 PM 69.8 °F - 57.2 °F 64% 29.92 in - Calm Calm - N/A   Clear
9:30 PM 68.0 °F - 57.2 °F 68% 29.95 in - Calm Calm - N/A   Clear
10:00 PM 66.2 °F - 57.2 °F 73% 29.95 in - Calm Calm - N/A   Clear
10:30 PM 66.2 °F - 57.2 °F 73% 29.95 in - Calm Calm - N/A   Clear
11:00 PM 66.2 °F - 57.2 °F 73% 29.95 in - SSW 2.3 mph - N/A   Clear
11:30 PM 66.2 °F - 57.2 °F 73% 29.95 in - Calm Calm - N/A   Clear